sat.trackr.live / text

‹ back to catalog

GSAT0232 (GALILEO 32)

NORAD 61182 · 2024-167A

PAYLOAD ACTIVE UNKNOWN

§ Identity

Operator
Country
ESA
Launch date
2024-09-17
Launch site
AFETR
Launch vehicle
Mass (kg)
RCS (m²)

Purposes: earth_obs, nav

External: N2YO · Heavens-Above · Gunter

§ Orbital elements

Epoch: 2026-05-24T06:49:21.780768Z

Period
844.70 min
Inclination
55.1908°
Eccentricity
0.0005629
Mean motion
1.70474466 rev/d
Perigee alt
23,205.5 km
Apogee alt
23,238.8 km
Semi-major
29,600.3 km
B*
0.0000e+0
RAAN
221.9692°
Arg perigee
222.4383°
Mean anomaly
196.4466°
Rev number
1,047

§ Raw data

GSAT0232 (GALILEO 32)1 61182U 24167A   26144.28427987 -.00000012  00000+0  00000+0 0  99942 61182  55.1908 221.9692 0005629 222.4383 196.4466  1.70474466 10472

JSON: /api/v1/satellites/61182 · /tle

For live sub-satellite position, see the globe view (requires WebGL).

§ Visibility from observer

Set your observer location to see the next 7 days of passes ≥ 10°. The values pass through the URL so the page stays shareable.

No JS? Fill the form by hand. The geolocation button needs JavaScript.